Time,TemperatureF,DewpointF,PressureIn,WindDirection,WindDirectionDegrees,WindSpeedMPH,WindSpeedGustMPH,Humidity,HourlyPrecipIn,Conditions,Clouds,dailyrainin,SoftwareType,DateUTC
2013-07-24 00:11:00,68.0,67.0,-100.00,NNW,335,0.0,0.0,96,-99.99,,,-99.99,,2013-07-24 05:11:00,
2013-07-24 00:22:00,68.0,67.0,-100.00,NNW,335,0.0,0.0,96,-99.99,,,-99.99,,2013-07-24 05:22:00,
2013-07-24 00:43:00,68.0,67.0,-100.00,North,355,0.0,0.0,97,-99.99,,,-99.99,,2013-07-24 05:43:00,
2013-07-24 00:52:00,68.0,67.0,-100.00,North,355,0.0,0.0,97,-99.99,,,-99.99,,2013-07-24 05:52:00,
2013-07-24 01:24:00,68.0,67.0,-100.00,NNW,345,0.0,0.0,96,-99.99,,,-99.99,,2013-07-24 06:24:00,
2013-07-24 01:43:00,68.0,67.0,-100.00,NE,50,0.0,0.0,94,-99.99,,,-99.99,,2013-07-24 06:43:00,
2013-07-24 01:53:00,68.0,67.0,-100.00,NE,50,0.0,0.0,94,-99.99,,,-99.99,,2013-07-24 06:53:00,
2013-07-24 02:22:00,68.0,67.0,-100.00,NE,50,0.0,0.0,96,-99.99,,,-99.99,,2013-07-24 07:22:00,
2013-07-24 02:53:00,67.0,66.0,-100.00,East,95,0.0,0.0,98,-99.99,,,-99.99,,2013-07-24 07:53:00,
2013-07-24 03:22:00,65.0,65.0,-100.00,East,95,0.0,0.0,99,-99.99,,,-99.99,,2013-07-24 08:22:00,
2013-07-24 03:32:00,65.0,64.0,-100.00,East,100,0.0,0.0,99,-99.99,,,-99.99,,2013-07-24 08:32:00,
2013-07-24 03:43:00,65.0,64.0,-100.00,ESE,105,0.0,0.0,99,-99.99,,,-99.99,,2013-07-24 08:43:00,
2013-07-24 03:52:00,65.0,64.0,-100.00,ESE,105,0.0,0.0,99,-99.99,,,-99.99,,2013-07-24 08:52:00,
2013-07-24 04:02:00,64.0,64.0,-100.00,ESE,105,0.0,0.0,99,-99.99,,,-99.99,,2013-07-24 09:02:00,
2013-07-24 04:22:00,63.0,63.0,-100.00,ESE,105,0.0,0.0,99,-99.99,,,-99.99,,2013-07-24 09:22:00,
2013-07-24 04:53:00,63.0,63.0,-100.00,East,95,0.0,0.0,99,-99.99,,,-99.99,,2013-07-24 09:53:00,
2013-07-24 05:02:00,63.0,62.0,-100.00,East,95,0.0,0.0,99,-99.99,,,-99.99,,2013-07-24 10:02:00,
2013-07-24 05:22:00,62.0,62.0,-100.00,ESE,110,0.0,0.0,99,-99.99,,,-99.99,,2013-07-24 10:22:00,
2013-07-24 05:33:00,62.0,62.0,-100.00,East,90,0.0,0.0,99,-99.99,,,-99.99,,2013-07-24 10:33:00,
2013-07-24 05:43:00,62.0,62.0,-100.00,East,100,0.0,0.0,99,-99.99,,,-99.99,,2013-07-24 10:43:00,
2013-07-24 05:53:00,62.0,62.0,-100.00,East,100,0.0,0.0,99,-99.99,,,-99.99,,2013-07-24 10:53:00,
2013-07-24 06:12:00,62.0,62.0,-100.00,East,80,0.0,0.0,99,-99.99,,,-99.99,,2013-07-24 11:12:00,
2013-07-24 06:22:00,62.0,62.0,-100.00,East,80,0.0,0.0,99,-99.99,,,-99.99,,2013-07-24 11:22:00,
2013-07-24 06:43:00,62.0,62.0,-100.00,ENE,70,0.0,0.0,99,-99.99,,,-99.99,,2013-07-24 11:43:00,
2013-07-24 06:52:00,62.0,62.0,-100.00,ENE,70,0.0,0.0,99,-99.99,,,-99.99,,2013-07-24 11:52:00,
2013-07-24 07:22:00,63.0,63.0,-100.00,East,100,0.0,0.0,99,-99.99,,,-99.99,,2013-07-24 12:22:00,
2013-07-24 07:42:00,65.0,65.0,-100.00,East,85,0.0,0.0,99,-99.99,,,-99.99,,2013-07-24 12:42:00,
2013-07-24 07:52:00,65.0,65.0,-100.00,East,85,0.0,0.0,99,-99.99,,,-99.99,,2013-07-24 12:52:00,
2013-07-24 08:22:00,68.0,64.0,-100.00,NE,50,0.0,0.0,87,-99.99,,,-99.99,,2013-07-24 13:22:00,
2013-07-24 08:43:00,70.0,63.0,-100.00,East,100,0.0,0.0,78,-99.99,,,-99.99,,2013-07-24 13:43:00,
2013-07-24 08:53:00,70.0,63.0,-100.00,East,100,0.0,0.0,78,-99.99,,,-99.99,,2013-07-24 13:53:00,
2013-07-24 09:22:00,71.0,61.0,-100.00,ESE,110,0.0,0.0,69,-99.99,,,-99.99,,2013-07-24 14:22:00,
2013-07-24 09:43:00,73.0,61.0,-100.00,East,95,0.0,0.0,67,-99.99,,,-99.99,,2013-07-24 14:43:00,
2013-07-24 09:55:00,73.0,61.0,-100.00,East,95,0.0,0.0,67,-99.99,,,-99.99,,2013-07-24 14:55:00,
2013-07-24 10:22:00,74.0,61.0,-100.00,NE,55,0.0,0.0,62,-99.99,,,-99.99,,2013-07-24 15:22:00,
2013-07-24 10:53:00,75.0,60.0,-100.00,ESE,105,0.0,0.0,59,-99.99,,,-99.99,,2013-07-24 15:53:00,
2013-07-24 11:22:00,77.0,60.0,-100.00,East,100,0.0,0.0,56,-99.99,,,-99.99,,2013-07-24 16:22:00,
2013-07-24 11:32:00,79.0,61.0,-100.00,East,95,0.0,0.0,54,-99.99,,,-99.99,,2013-07-24 16:32:00,
2013-07-24 11:43:00,79.0,61.0,-100.00,North,350,0.0,0.0,53,-99.99,,,-99.99,,2013-07-24 16:43:00,
2013-07-24 11:53:00,79.0,61.0,-100.00,North,350,0.0,0.0,53,-99.99,,,-99.99,,2013-07-24 16:53:00,
2013-07-24 12:12:00,81.0,61.0,-100.00,NE,50,0.0,0.0,50,-99.99,,,-99.99,,2013-07-24 17:12:00,
2013-07-24 12:22:00,81.0,61.0,-100.00,NE,50,0.0,0.0,50,-99.99,,,-99.99,,2013-07-24 17:22:00,
2013-07-24 12:43:00,82.0,61.0,-100.00,ENE,70,0.0,0.0,50,-99.99,,,-99.99,,2013-07-24 17:43:00,
2013-07-24 12:53:00,82.0,61.0,-100.00,ENE,70,0.0,0.0,50,-99.99,,,-99.99,,2013-07-24 17:53:00,
2013-07-24 13:12:00,82.0,62.0,-100.00,ENE,65,0.0,0.0,51,-99.99,,,-99.99,,2013-07-24 18:12:00,
2013-07-24 13:22:00,82.0,62.0,-100.00,ENE,65,0.0,0.0,51,-99.99,,,-99.99,,2013-07-24 18:22:00,
2013-07-24 13:33:00,83.0,62.0,-100.00,ESE,110,0.0,0.0,50,-99.99,,,-99.99,,2013-07-24 18:33:00,
2013-07-24 13:43:00,82.0,61.0,-100.00,NE,45,0.0,0.0,50,-99.99,,,-99.99,,2013-07-24 18:43:00,
2013-07-24 13:52:00,82.0,61.0,-100.00,NE,45,0.0,0.0,50,-99.99,,,-99.99,,2013-07-24 18:52:00,
2013-07-24 14:12:00,84.0,61.0,-100.00,NW,310,0.0,0.0,47,-99.99,,,-99.99,,2013-07-24 19:12:00,
2013-07-24 14:22:00,84.0,61.0,-100.00,NW,310,0.0,0.0,47,-99.99,,,-99.99,,2013-07-24 19:22:00,
2013-07-24 14:32:00,82.0,61.0,-100.00,ENE,70,0.0,0.0,49,-99.99,,,-99.99,,2013-07-24 19:32:00,
2013-07-24 14:43:00,83.0,61.0,-100.00,NE,55,0.0,0.0,48,-99.99,,,-99.99,,2013-07-24 19:43:00,
2013-07-24 14:53:00,83.0,61.0,-100.00,NE,55,0.0,0.0,48,-99.99,,,-99.99,,2013-07-24 19:53:00,
2013-07-24 15:13:00,82.0,61.0,-100.00,NNW,330,0.0,0.0,50,-99.99,,,-99.99,,2013-07-24 20:13:00,
2013-07-24 15:23:00,82.0,61.0,-100.00,NNW,330,0.0,0.0,50,-99.99,,,-99.99,,2013-07-24 20:23:00,
2013-07-24 15:32:00,84.0,61.0,-100.00,NW,310,0.0,0.0,47,-99.99,,,-99.99,,2013-07-24 20:32:00,
2013-07-24 15:43:00,82.0,60.0,-100.00,North,355,0.0,0.0,48,-99.99,,,-99.99,,2013-07-24 20:43:00,
2013-07-24 15:53:00,82.0,60.0,-100.00,North,355,0.0,0.0,48,-99.99,,,-99.99,,2013-07-24 20:53:00,
2013-07-24 16:22:00,81.0,59.0,-100.00,East,90,0.0,0.0,48,-99.99,,,-99.99,,2013-07-24 21:22:00,
2013-07-24 16:53:00,79.0,59.0,-100.00,NW,315,0.0,0.0,51,-99.99,,,-99.99,,2013-07-24 21:53:00,
2013-07-24 17:12:00,77.0,58.0,-100.00,ENE,65,0.0,0.0,53,-99.99,,,-99.99,,2013-07-24 22:12:00,
2013-07-24 17:22:00,77.0,58.0,-100.00,ENE,65,0.0,0.0,53,-99.99,,,-99.99,,2013-07-24 22:22:00,
2013-07-24 17:32:00,76.0,59.0,-100.00,ENE,60,0.0,0.0,55,-99.99,,,-99.99,,2013-07-24 22:32:00,
2013-07-24 17:43:00,76.0,59.0,-100.00,ENE,60,0.0,0.0,55,-99.99,,,-99.99,,2013-07-24 22:43:00,
2013-07-24 17:53:00,76.0,59.0,-100.00,ENE,60,0.0,0.0,55,-99.99,,,-99.99,,2013-07-24 22:53:00,
2013-07-24 18:22:00,75.0,58.0,-100.00,NW,310,0.0,0.0,56,-99.99,,,-99.99,,2013-07-24 23:22:00,
2013-07-24 18:43:00,74.0,59.0,-100.00,NE,55,0.0,0.0,58,-99.99,,,-99.99,,2013-07-24 23:43:00,
2013-07-24 18:52:00,74.0,59.0,-100.00,NE,55,0.0,0.0,58,-99.99,,,-99.99,,2013-07-24 23:52:00,
2013-07-24 19:02:00,74.0,59.0,-100.00,NW,315,0.0,0.0,59,-99.99,,,-99.99,,2013-07-25 00:02:00,
2013-07-24 19:12:00,74.0,59.0,-100.00,NNW,345,0.0,0.0,58,-99.99,,,-99.99,,2013-07-25 00:12:00,
2013-07-24 19:22:00,74.0,59.0,-100.00,NNW,345,0.0,0.0,58,-99.99,,,-99.99,,2013-07-25 00:22:00,
2013-07-24 19:53:00,73.0,60.0,-100.00,North,355,0.0,0.0,63,-99.99,,,-99.99,,2013-07-25 00:53:00,
2013-07-24 20:22:00,73.0,60.0,-100.00,NE,55,0.0,0.0,63,-99.99,,,-99.99,,2013-07-25 01:22:00,
2013-07-24 20:43:00,72.0,60.0,-100.00,ENE,60,0.0,0.0,67,-99.99,,,-99.99,,2013-07-25 01:43:00,
2013-07-24 20:53:00,72.0,60.0,-100.00,ENE,60,0.0,0.0,67,-99.99,,,-99.99,,2013-07-25 01:53:00,
2013-07-24 21:02:00,71.0,61.0,-100.00,North,355,0.0,0.0,71,-99.99,,,-99.99,,2013-07-25 02:02:00,
2013-07-24 21:12:00,71.0,62.0,-100.00,ENE,60,0.0,0.0,75,-99.99,,,-99.99,,2013-07-25 02:12:00,
2013-07-24 21:22:00,71.0,62.0,-100.00,ENE,60,0.0,0.0,75,-99.99,,,-99.99,,2013-07-25 02:22:00,
2013-07-24 21:33:00,70.0,64.0,-100.00,NE,55,0.0,0.0,80,-99.99,,,-99.99,,2013-07-25 02:33:00,
2013-07-24 21:43:00,70.0,64.0,-100.00,NE,55,0.0,0.0,82,-99.99,,,-99.99,,2013-07-25 02:43:00,
2013-07-24 21:53:00,70.0,64.0,-100.00,NE,55,0.0,0.0,82,-99.99,,,-99.99,,2013-07-25 02:53:00,
2013-07-24 22:02:00,70.0,64.0,-100.00,ENE,65,0.0,0.0,83,-99.99,,,-99.99,,2013-07-25 03:02:00,
2013-07-24 22:16:00,70.0,64.0,-100.00,ENE,65,0.0,0.0,83,-99.99,,,-99.99,,2013-07-25 03:16:00,
2013-07-24 23:43:00,66.0,65.0,-100.00,North,355,0.0,0.0,96,-99.99,,,-99.99,,2013-07-25 04:43:00,
2013-07-24 23:53:00,66.0,65.0,-100.00,North,355,0.0,0.0,96,-99.99,,,-99.99,,2013-07-25 04:53:00,